EZY18LR EGGW-LOWI

Flight info

Callsign EZY18LR
Flight time N/A
Altitude 37000
Route MATCH Q295 BRAIN P44 DAGGA M85 ITVIP L10 DVR UL9 KONAN DCT KOK DCT KOMOB DCT PITES DCT KRH DCT TEDGO DCT UTABA M738 MADEB MADEB1B
Aircraft A319/M-SDE2E3FGIJ1RWXYZ/LB1

Departure

Time 2026-05-07 17:29
Airport London Luton Airport (EGGW)

Arrival

Time N/A
Airport Innsbruck Airport (LOWI)
Time Latitude Longitude Altitude Speed Heading
2026-05-07 17:15 51.87840 -0.37843 523 ft 0 kts 28°
2026-05-07 17:21 51.87825 -0.37856 523 ft 4 kts 28°
2026-05-07 17:21 51.87806 -0.37873 523 ft 4 kts 36°
2026-05-07 17:22 51.87795 -0.37899 523 ft 4 kts 109°
2026-05-07 17:22 51.87807 -0.37932 523 ft 2 kts 124°
2026-05-07 17:22 51.87808 -0.37933 523 ft 0 kts 124°
2026-05-07 17:24 51.87790 -0.37883 523 ft 9 kts 116°
2026-05-07 17:24 51.87761 -0.37782 523 ft 10 kts 115°
2026-05-07 17:24 51.87727 -0.37662 520 ft 14 kts 114°
2026-05-07 17:25 51.87697 -0.37558 520 ft 7 kts 118°
2026-05-07 17:25 51.87673 -0.37504 521 ft 5 kts 134°
2026-05-07 17:25 51.87645 -0.37474 522 ft 5 kts 153°
2026-05-07 17:25 51.87604 -0.37456 523 ft 7 kts 173°
2026-05-07 17:26 51.87548 -0.37463 521 ft 10 kts 194°
2026-05-07 17:26 51.87502 -0.37541 522 ft 10 kts 255°
2026-05-07 17:26 51.87481 -0.37671 523 ft 15 kts 253°
2026-05-07 17:26 51.87447 -0.37864 523 ft 18 kts 255°
2026-05-07 17:27 51.87414 -0.38014 524 ft 10 kts 233°
2026-05-07 17:27 51.87349 -0.38081 522 ft 12 kts 203°
2026-05-07 17:27 51.87266 -0.38114 523 ft 12 kts 191°
2026-05-07 17:27 51.87224 -0.38218 523 ft 12 kts 245°
2026-05-07 17:28 51.87185 -0.38310 520 ft 9 kts 268°
2026-05-07 17:28 51.87214 -0.38296 521 ft 5 kts 76°
2026-05-07 17:28 51.87216 -0.38285 521 ft 0 kts 78°
2026-05-07 17:29 51.87216 -0.38280 521 ft 8 kts 78°
2026-05-07 17:29 51.87313 -0.37708 522 ft 95 kts 74°
2026-05-07 17:29 51.87554 -0.36288 619 ft 153 kts 77°
2026-05-07 17:29 51.87830 -0.34670 1413 ft 148 kts 75°
2026-05-07 17:30 51.88108 -0.33104 2173 ft 141 kts 76°
2026-05-07 17:30 51.88389 -0.31472 2486 ft 161 kts 76°
2026-05-07 17:30 51.88709 -0.29595 2657 ft 188 kts 76°
2026-05-07 17:30 51.89084 -0.27403 2922 ft 214 kts 75°
2026-05-07 17:31 51.89488 -0.24980 3302 ft 234 kts 79°
2026-05-07 17:31 51.89362 -0.22327 3846 ft 247 kts 113°
2026-05-07 17:31 51.88228 -0.20187 4436 ft 260 kts 150°
2026-05-07 17:31 51.86583 -0.18918 5344 ft 264 kts 158°
2026-05-07 17:32 51.84889 -0.17723 6293 ft 268 kts 158°
2026-05-07 17:32 51.83170 -0.16522 7213 ft 271 kts 158°
2026-05-07 17:32 51.81431 -0.15299 8143 ft 274 kts 158°
2026-05-07 17:32 51.79673 -0.14052 9052 ft 278 kts 157°
2026-05-07 17:33 51.77897 -0.12782 9968 ft 281 kts 156°
2026-05-07 17:33 51.76302 -0.10948 10761 ft 289 kts 131°
2026-05-07 17:33 51.75417 -0.08025 11548 ft 297 kts 102°
2026-05-07 17:33 51.75415 -0.04628 12063 ft 315 kts 85°
2026-05-07 17:34 51.75682 -0.00984 12305 ft 339 kts 84°
2026-05-07 17:34 51.76020 0.02899 12487 ft 362 kts 83°
2026-05-07 17:34 51.76396 0.07003 12954 ft 373 kts 83°
2026-05-07 17:34 51.76674 0.11176 13618 ft 376 kts 92°
2026-05-07 17:35 51.76258 0.15330 14262 ft 376 kts 111°
2026-05-07 17:35 51.75055 0.19051 14864 ft 377 kts 129°
2026-05-07 17:35 51.73369 0.22316 15481 ft 380 kts 132°
2026-05-07 17:35 51.71645 0.25557 16082 ft 384 kts 133°
2026-05-07 17:36 51.69885 0.28849 16667 ft 389 kts 133°
2026-05-07 17:36 51.68114 0.32166 17252 ft 393 kts 133°
2026-05-07 17:36 51.66322 0.35529 17841 ft 398 kts 133°
2026-05-07 17:36 51.64512 0.38935 18424 ft 402 kts 132°
2026-05-07 17:37 51.62681 0.42371 18951 ft 406 kts 132°
2026-05-07 17:37 51.60837 0.45826 19470 ft 409 kts 132°
2026-05-07 17:37 51.58972 0.49324 19982 ft 413 kts 132°
2026-05-07 17:37 51.57096 0.52835 20479 ft 416 kts 132°
2026-05-07 17:38 51.55201 0.56375 20967 ft 419 kts 133°
2026-05-07 17:38 51.53288 0.59945 21453 ft 423 kts 133°
2026-05-07 17:38 51.51360 0.63532 21928 ft 426 kts 133°
2026-05-07 17:38 51.49415 0.67140 22393 ft 429 kts 133°
2026-05-07 17:39 51.47458 0.70768 22848 ft 432 kts 133°
2026-05-07 17:39 51.45486 0.74427 23293 ft 435 kts 133°
2026-05-07 17:39 51.43521 0.78134 23720 ft 438 kts 131°
2026-05-07 17:39 51.41571 0.81908 24095 ft 441 kts 131°
2026-05-07 17:40 51.39612 0.85705 24477 ft 444 kts 131°
2026-05-07 17:40 51.37669 0.89477 24845 ft 446 kts 131°
2026-05-07 17:40 51.35693 0.93312 25209 ft 448 kts 131°
2026-05-07 17:40 51.33704 0.97175 25560 ft 451 kts 131°
2026-05-07 17:41 51.31703 1.01056 25901 ft 454 kts 131°
2026-05-07 17:41 51.29691 1.04960 26247 ft 456 kts 131°
2026-05-07 17:41 51.27778 1.09016 26584 ft 461 kts 122°
2026-05-07 17:41 51.26400 1.13664 26906 ft 465 kts 114°
2026-05-07 17:42 51.25128 1.18505 27245 ft 468 kts 114°
2026-05-07 17:42 51.23892 1.23245 27559 ft 470 kts 114°
2026-05-07 17:42 51.22634 1.28076 27884 ft 472 kts 114°
2026-05-07 17:42 51.21370 1.32928 28195 ft 475 kts 114°
2026-05-07 17:43 51.20101 1.37792 28498 ft 477 kts 114°
2026-05-07 17:43 51.18821 1.42687 28812 ft 479 kts 114°
2026-05-07 17:43 51.17537 1.47579 29238 ft 478 kts 114°
2026-05-07 17:43 51.16251 1.52456 29676 ft 477 kts 114°
2026-05-07 17:44 51.14964 1.57323 30112 ft 477 kts 115°
2026-05-07 17:44 51.13676 1.62183 30481 ft 476 kts 115°
2026-05-07 17:44 51.12389 1.67025 30851 ft 475 kts 115°
2026-05-07 17:44 51.11098 1.71879 31026 ft 475 kts 115°
2026-05-07 17:45 51.08518 1.81546 31061 ft 474 kts 115°
2026-05-07 17:45 51.05935 1.91200 31310 ft 475 kts 115°
2026-05-07 17:46 51.04637 1.96025 31721 ft 474 kts 115°
2026-05-07 17:46 51.03337 2.00831 32109 ft 473 kts 115°
2026-05-07 17:46 51.02039 2.05621 32490 ft 472 kts 115°
2026-05-07 17:46 51.00740 2.10412 32868 ft 472 kts 115°
2026-05-07 17:47 50.99446 2.15190 33246 ft 471 kts 115°
2026-05-07 17:47 50.98151 2.19961 33624 ft 470 kts 115°
2026-05-07 17:47 50.96856 2.24720 34003 ft 470 kts 115°
2026-05-07 17:47 50.95558 2.29472 34329 ft 469 kts 115°
2026-05-07 17:48 50.94259 2.34213 34626 ft 469 kts 115°
2026-05-07 17:48 50.92960 2.38944 34937 ft 468 kts 115°
2026-05-07 17:48 50.91660 2.43672 35250 ft 467 kts 115°
2026-05-07 17:48 50.90363 2.48389 35538 ft 467 kts 115°
2026-05-07 17:49 50.89064 2.53103 35807 ft 466 kts 115°
2026-05-07 17:49 50.87767 2.57803 36070 ft 466 kts 115°
2026-05-07 17:49 50.86465 2.62506 36330 ft 466 kts 116°
2026-05-07 17:49 50.85162 2.67199 36578 ft 466 kts 116°
2026-05-07 17:50 50.83861 2.71888 36805 ft 466 kts 116°
2026-05-07 17:50 50.82558 2.76585 37009 ft 466 kts 116°
2026-05-07 17:50 50.79935 2.85977 37065 ft 467 kts 116°
2026-05-07 17:51 50.77293 2.95363 37054 ft 467 kts 116°
2026-05-07 17:51 50.74655 3.04743 37060 ft 467 kts 116°
2026-05-07 17:52 50.72014 3.14113 37055 ft 467 kts 116°
2026-05-07 17:52 50.69353 3.23468 37052 ft 467 kts 116°
2026-05-07 17:53 50.66682 3.32809 37046 ft 467 kts 116°
2026-05-07 17:53 50.64009 3.42147 37059 ft 467 kts 116°
2026-05-07 17:54 50.61336 3.51479 37062 ft 468 kts 116°
2026-05-07 17:54 50.58652 3.60808 37054 ft 468 kts 116°
2026-05-07 17:55 50.55950 3.70115 37056 ft 468 kts 116°
2026-05-07 17:55 50.53244 3.79413 37053 ft 468 kts 116°
2026-05-07 17:56 50.50534 3.88719 37059 ft 468 kts 116°
2026-05-07 17:56 50.47817 3.98012 37070 ft 468 kts 116°
2026-05-07 17:57 50.45549 4.05721 37069 ft 468 kts 117°
2026-05-07 17:57 50.42348 4.16571 37089 ft 469 kts 117°
2026-05-07 17:58 50.39597 4.25838 37096 ft 469 kts 117°
2026-05-07 17:58 50.36841 4.35103 37099 ft 469 kts 117°
2026-05-07 17:59 50.34081 4.44355 37098 ft 469 kts 117°
2026-05-07 17:59 50.31311 4.53585 37076 ft 469 kts 117°
2026-05-07 18:00 50.28538 4.62810 37070 ft 468 kts 117°
2026-05-07 18:00 50.25777 4.71962 37072 ft 468 kts 117°
2026-05-07 18:01 50.22995 4.81161 37072 ft 468 kts 117°
2026-05-07 18:01 50.20204 4.90348 37073 ft 468 kts 117°
2026-05-07 18:02 50.16000 5.04084 37071 ft 468 kts 117°
2026-05-07 18:03 50.13187 5.13232 37069 ft 468 kts 117°
2026-05-07 18:03 50.10371 5.22373 37067 ft 468 kts 117°
2026-05-07 18:04 50.07551 5.31506 37068 ft 468 kts 117°
2026-05-07 18:04 50.04720 5.40628 37066 ft 468 kts 118°
2026-05-07 18:05 50.01874 5.49734 37059 ft 468 kts 118°
2026-05-07 18:05 49.99019 5.58830 37064 ft 468 kts 118°
2026-05-07 18:06 49.96162 5.67920 37064 ft 468 kts 118°
2026-05-07 18:06 49.93302 5.77007 37069 ft 468 kts 118°
2026-05-07 18:07 49.90436 5.86079 37065 ft 468 kts 118°
2026-05-07 18:07 49.87561 5.95145 37056 ft 468 kts 118°
2026-05-07 18:08 49.85165 6.02661 37062 ft 468 kts 118°
2026-05-07 18:08 49.82277 6.11705 37062 ft 468 kts 118°
2026-05-07 18:09 49.79381 6.20738 37056 ft 468 kts 118°
2026-05-07 18:09 49.76474 6.29754 37059 ft 468 kts 118°
2026-05-07 18:10 49.73567 6.38773 37052 ft 469 kts 118°
2026-05-07 18:10 49.70649 6.47776 37058 ft 469 kts 118°
2026-05-07 18:11 49.67712 6.56769 37062 ft 469 kts 118°
2026-05-07 18:11 49.64772 6.65749 37064 ft 469 kts 118°